Regional Weather Roundup
Issued by NWS

Home | Current Version | Previous Version | Graphics & Text | Print | Product List | Glossary On
Versions: 1 2 3 4 5 6 7 8 9 10 11 12 13 14 15 16 17 18 19 20 21 22 23 24 25 26 27 28 29 30 31 32 33 34 35 36 37 38 39 40 41 42 43 44 45 46 47 48 49 50
000
ASUS43 KDMX 270206
RWRIA

WEATHER ROUNDUP FOR IOWA
NATIONAL WEATHER SERVICE DES MOINES IA
900 PM CDT THU APR 26 2018

NOTE: "FAIR" INDICATES FEW OR NO CLOUDS BELOW 12,000 FEET WITH NO
SIGNIFICANT WEATHER AND/OR OBSTRUCTIONS TO VISIBILITY.

* - THESE STATIONS ARE NOT NWS STATIONS...THUS NOT UNDER NWS
QUALITY CONTROL.  THEY ALSO DO NOT REPORT WEATHER SUCH
AS PRECIPITATION OR FOG.

IAZ001>003-012>014-020>022-031>034-043>046-270300-
   NORTHWEST IOWA

CITY           SKY/WX    TMP DP  RH WIND       PRES   REMARKS
CARROLL *      CLEAR     52  32  46 N13       30.01R
CHEROKEE *     CLEAR     51  33  49 NW7       30.02R
DENISON *      CLEAR     50  30  46 N6        30.03R
LE MARS *      CLEAR     52  30  43 N8        30.04R
ORANGE CITY *  CLEAR     54  32  43 N7        30.03S
SHELDON *        N/A     48  34  57 N8        30.01S
SIOUX CITY     CLEAR     55  29  36 N13       30.04R
SPENCER        CLEAR     47  35  63 NW8       30.01R
STORM LAKE *   CLEAR     48  32  53 N10       30.02R
$$

IAZ055>058-069>071-079>083-090>094-270300-
   SOUTHWEST IOWA

CITY           SKY/WX    TMP DP  RH WIND       PRES   REMARKS
ATLANTIC *     CLEAR     54  28  37 N13       30.01R
AUDUBON *      CLEAR     54  30  40 N10       30.02R
CLARINDA *     CLEAR     59  30  33 N15G24    30.01R
COUNCIL BLFS * CLEAR     55  28  35 N9        30.02R
CRESTON *      CLEAR     57  34  41 N18       29.98R
HARLAN  *      CLEAR     54  28  37 N10       30.05R
LAMONI         CLEAR     60  41  49 N14       29.93R
RED OAK *      CLEAR     55  27  33 N13       30.01R
SHENANDOAH *   CLEAR     57  28  33 N12       30.01R
$$

IAZ047>049-059>061-072>074-084-270300-
   CENTRAL IOWA

CITY           SKY/WX    TMP DP  RH WIND       PRES   REMARKS
AMES           CLEAR     54  33  45 NW22      29.96R
ANKENY *       CLEAR     57  34  41 NW16G28   29.97R
BOONE *        CLEAR     52  32  46 NW17G24   29.96R
CHARITON *     CLEAR     57  41  54 NW12      29.92R
DES MOINES     CLEAR     59  33  37 NW14G23   29.95R
GRINNELL*      CLEAR     55  38  51 NW20      29.92R
KNOXVILLE *    CLEAR     59  39  47 NW16G28   29.91R
MARSHALLTOWN   CLEAR     55  36  48 NW24G31   29.91R
NEWTON *       CLEAR     57  36  44 NW22G29   29.92R
PELLA *        CLEAR     58  40  50 N15G21    29.92R
PERRY *        FAIR      53  29  39 N17G24    29.99R
$$

IAZ004>006-015-016-023>025-035-036-270300-
   NORTH CENTRAL IOWA

CITY           SKY/WX    TMP DP  RH WIND       PRES   REMARKS
ALGONA *       CLEAR     48  34  57 NW10G17   29.99R
CLARION *      CLEAR     50  32  50 NW18      29.97R
ESTHERVILLE    CLEAR     45  35  68 NW13      29.99R
FORT DODGE *   CLEAR     52  34  50 N10       29.99R
MASON CITY     CLEAR     50  35  56 NW18G28   29.95R
FOREST CITY *  FAIR      50  36  57 NW14      29.95R
WEBSTER CITY * CLEAR     50  34  53 NW15      29.96R
IOWA FALLS *   FAIR      53  36  53 NW18G26   29.95R
$$

IAZ007>011-017>019-026>030-037>042-050>054-066-270300-
   NORTHEAST IOWA

CITY           SKY/WX    TMP DP  RH WIND       PRES   REMARKS
CEDAR RAPIDS   FAIR      59  41  51 NW12      29.84R
CHARLES CITY * FAIR      54  34  47 NW13G20   29.90R
CLINTON *      FAIR      58  28  32 SW8       29.82S
DECORAH *      FAIR      57  36  44 NW9G16    29.84R
DUBUQUE        FAIR      60  39  45 NW15      29.82R
MONTICELLO *   FAIR      59  41  51 NW13G18   29.82R
OELWEIN *      FAIR      55  39  54 NW17      29.87R
WATERLOO       FAIR      55  36  48 NW17G23   29.88R
$$

IAZ064-065-067-068-078-270300-
   EAST CENTRAL IOWA

CITY           SKY/WX    TMP DP  RH WIND       PRES   REMARKS
DAVENPORT      FAIR      58  28  32 SW6       29.84S
IOWA CITY      FAIR      63  41  44 NW13      29.86R
MT. PLEASANT * CLOUDY    59  30  33 SW6       29.86R
MUSCATINE *    FAIR      59  30  33 SW9       29.83S
QUAD CITIES    FAIR      59  31  34 SW6       29.81F
$$

IAZ062-063-075>077-085>089-095>099-270300-
   SOUTHEAST IOWA

CITY           SKY/WX    TMP DP  RH WIND       PRES   REMARKS
BURLINGTON     PTCLDY    61  28  28 SW6       29.85S
FAIRFIELD *    PTCLDY    61  30  31 NW16G28   29.87R
FORT MADISON * PTCLDY    63  30  29 CALM      29.87S
KEOKUK *       CLEAR     61  32  33 SW5       29.86S
OSKALOOSA *    FAIR      59  41  50 N16G23    29.89R
CENTERVILLE *  MOCLDY    59  32  36 CALM      29.90S
OTTUMWA        CLEAR     60  41  49 NW16      29.88R
WASHINGTON *   PTCLDY    61  34  36 NW15G25   29.87R
$$

ABBREVIATIONS USED IN REMARKS
   TC - TEMPERATURES IN CELSIUS
  WCI - WIND CHILL INDEX
   HX - HEAT INDEX
  VSB - VISIBILITY
$$




USA.gov is the U.S. government's official web portal to all federal, state and local government web resources and services.